Flag for Russia Weather past 2 weeks in Irkutsk, Russia

12 °F


Feels Like: 3 °F
Forecast: 0 / 16 °F
Wind: 6 mph from Northwest

Location: Irkutsk Airport

Current Time: Dec 1, 2015 at 8:20:21 AM

Latest Report: Dec 1, 2015 at 7:30 AM

Visibility: 4 mi

Pressure: 30.15 "Hg

Humidity: 85%

Dew point: 9 °F

Location of IrkutskLocation

Historic Weather in Irkutsk — Graph


Irkutsk temperature yesterday

Maximum temperature yesterday: 25 °F (at 4:00 PM)
Minimum temperature yesterday: 14 °F (at 7:30 AM)
Average temperature yesterday: 21 °F

Past Weeks' High & Low Weather Summary

High27 °F (Nov 29, 2:30 PM)100% (Nov 26, 5:30 PM)30.69 "Hg (Nov 26, 5:30 PM)
Low-26 °F (Nov 21, 4:00 AM)62% (Nov 25, 1:00 PM)29.59 "Hg (Nov 30, 2:00 AM)
Average1 °F80%30.31 "Hg
* Reported Nov 16 6:00 AM — Dec 1 6:30 AM, Irkutsk, Weather by CustomWeather, © 2015

Note: Actual official high and low records may vary slightly from our data, if they occured in-between our weather recording intervals... More about our weather records


Irkutsk weather history for previous 24 hours

Time TempWeatherWind HumidityBarometerVisibility
6:30 AM
Tue, Dec 1
14 °FIce fog.6 mph85%30.15 "Hg2 mi
6:00 AM14 °FLight snow. Ice fog.6 mph85%30.12 "Hg3 mi
5:30 AM10 °FCold.1 mph92%30.09 "Hg1 mi
5:00 AM10 °FIce fog.1 mph92%30.09 "Hg1 mi
4:30 AM12 °FIce fog.No wind92%30.07 "Hg1 mi
4:00 AM12 °FIce fog.3 mph92%30.07 "Hg2 mi
3:30 AM12 °FCold.3 mph85%30.07 "Hg1 mi
3:00 AM16 °FSnow. Ice fog.No wind93%30.04 "Hg1 mi
2:30 AM16 °FSnow. Overcast.No wind86%30.04 "Hg1 mi
2:00 AM19 °FIce fog.No wind93%30.04 "Hg0 mi
1:30 AM19 °FIce fog.No wind93%30.01 "Hg2 mi
1:00 AM19 °FIce fog.1 mph93%30.01 "Hg2 mi
12:30 AM21 °FPassing clouds.3 mph86%30.01 "HgN/A
12:00 AM23 °FPassing clouds.3 mph86%30.01 "HgN/A
11:30 PM
Mon, Nov 30
23 °FPassing clouds.3 mph86%30.01 "HgN/A
11:00 PM23 °FPassing clouds.6 mph80%30.01 "HgN/A
10:30 PM23 °FPassing clouds.6 mph80%30.01 "HgN/A
10:00 PM23 °FPassing clouds.8 mph80%29.98 "HgN/A
9:30 PM23 °FPassing clouds.6 mph86%29.98 "HgN/A
9:00 PM23 °FPassing clouds.6 mph86%29.98 "HgN/A
8:30 PM25 °FPassing clouds.6 mph80%29.98 "HgN/A
8:00 PM25 °FPassing clouds.8 mph86%29.95 "HgN/A
7:30 PM25 °FPassing clouds.10 mph86%29.95 "HgN/A
7:00 PM25 °FPassing clouds.13 mph86%29.92 "HgN/A
6:30 PM25 °FPassing clouds.13 mph86%29.92 "HgN/A
6:00 PM25 °FPassing clouds.13 mph86%29.89 "HgN/A
5:30 PM25 °FSnow flurries. Partly sunny.8 mph86%29.89 "Hg4 mi
5:00 PM25 °FSnow flurries. Partly sunny.8 mph86%29.86 "Hg4 mi
4:30 PM25 °FSnow flurries. Overcast.10 mph93%29.86 "Hg2 mi
4:00 PM25 °FSnow showers. Low clouds.10 mph93%29.83 "Hg1 mi
3:30 PM23 °FSnow showers. Low clouds.13 mph93%29.80 "Hg1 mi
3:00 PM23 °FSnow showers. Low clouds.13 mph93%29.80 "Hg1 mi
2:30 PM21 °FCold.10 mph93%29.80 "Hg1 mi
2:00 PM21 °FCold.3 mph93%29.80 "Hg1 mi
1:30 PM19 °FHeavy snow. Low clouds.3 mph93%29.80 "Hg1 mi
1:00 PM19 °FSnow showers. Low clouds.6 mph93%29.77 "Hg1 mi
12:30 PM19 °FSnow showers. Overcast.8 mph86%29.77 "Hg1 mi
11:30 AM18 °FSnow flurries. Overcast.8 mph93%29.74 "Hg2 mi
11:00 AM18 °FSnow flurries. Overcast.8 mph86%29.74 "Hg1 mi
10:30 AM18 °FSnow flurries. Overcast.6 mph86%29.71 "Hg2 mi
10:00 AM18 °FSnow flurries. Overcast.8 mph86%29.71 "Hg2 mi
9:30 AM18 °FPassing clouds.6 mph86%29.71 "HgN/A
8:00 AM16 °FPassing clouds.3 mph86%29.68 "HgN/A
Weather by CustomWeather, © 2015

See weather overviewHow to use our weather pages